Wind_Speed
23 22 20 19 19 18 16 15 14 14 13 13 13 13 12 11 11 11 11 10 10 9 9 9 9 9 9 8 8 9 10 10 10 9 9 8 8 9 10 9 8 8 8 8 8 9 10 10 9 9 9 9 9 9 9 8 7 7 6 5 5 5 5 6 7 8 7 9 13 16 17 17 15 15 15 15 15 15 15 16 16 16 16 17 17
24 23 20 19 20 18 17 16 15 14 14 13 12 12 11 11 11 11 10 10 9 9 8 8 8 8 8 8 8 8 9 9 9 9 8 8 8 9 9 8 8 8 8 8 9 9 10 10 9 10 9 9 8 9 10 9 7 6 7 6 4 5 5 6 8 9 8 8 13 17 17 16 15 15 14 15 15 15 15 16 16 15 17 16 16
24 23 20 20 19 18 17 15 15 14 14 13 11 10 10 10 10 10 9 9 9 8 8 8 8 8 7 7 7 7 7 8 9 8 8 8 7 7 7 7 7 7 8 9 9 10 11 11 11 11 10 9 9 10 10 9 8 7 7 7 6 5 6 6 7 8 8 8 14 18 16 15 15 15 15 15 15 15 16 17 16 16 16 16 15
23 22 21 21 20 18 17 16 15 14 14 12 11 10 10 11 10 10 9 8 8 8 8 8 7 7 7 7 6 6 6 7 7 7 7 7 6 6 6 6 7 7 8 9 9 10 11 12 11 11 11 10 9 10 9 10 9 8 9 9 8 7 6 7 7 7 7 8 13 18 16 15 15 15 15 15 15 16 17 18 17 16 16 15 15
22 22 21 21 20 18 17 16 15 14 14 13 11 10 10 10 10 10 9 8 8 7 8 8 7 7 7 6 6 6 5 6 6 6 6 6 6 5 5 5 6 7 8 8 9 10 11 12 12 12 11 11 10 9 9 10 9 9 10 10 8 8 7 7 7 7 8 8 12 17 16 15 15 15 15 15 16 16 17 17 17 16 15 15 15
23 22 22 21 20 19 18 16 15 15 14 13 12 11 10 10 10 10 9 8 8 7 7 7 7 7 6 6 6 6 5 5 5 5 5 5 5 5 5 5 5 6 7 8 8 9 10 11 11 12 12 11 10 10 10 10 9 11 10 9 10 10 9 8 8 9 10 8 12 16 15 16 15 15 15 15 15 15 16 17 17 16 15 15 16
23 23 22 20 20 19 17 16 16 15 14 13 12 11 11 10 10 9 9 8 8 7 6 6 6 6 6 6 6 6 6 5 5 4 4 4 5 5 5 4 5 5 6 7 8 8 9 10 10 11 12 12 11 10 11 11 11 12 11 11 12 12 11 10 9 10 10 9 12 15 15 16 15 14 14 12 13 12 13 15 16 16 16 16 16
23 23 21 20 19 19 18 16 16 15 14 13 12 11 11 10 10 9 9 8 8 7 7 7 6 6 6 6 6 6 6 5 5 4 4 4 4 4 4 4 5 5 6 7 7 8 9 9 9 10 11 12 11 11 11 11 12 12 12 12 14 14 13 11 10 10 9 9 13 15 14 15 14 13 13 11 11 10 9 11 13 14 16 16 15
23 22 20 20 19 19 18 17 17 15 14 13 12 12 11 10 10 9 9 8 8 8 7 7 7 6 6 6 6 6 6 5 5 4 4 4 4 4 4 4 5 5 6 6 7 8 9 9 10 10 10 11 9 9 10 11 12 12 13 14 15 15 14 12 11 11 9 10 14 14 14 13 12 12 13 12 11 11 10 9 9 11 14 15 15
21 20 20 20 19 19 18 18 18 16 14 13 12 11 11 10 9 9 9 8 8 8 7 7 7 6 6 6 6 6 5 5 4 3 3 3 3 3 3 4 4 4 4 5 6 7 8 9 10 9 9 9 8 7 9 10 12 13 14 15 16 16 15 13 12 12 11 11 13 14 14 13 11 13 13 14 13 11 11 10 7 8 11 13 14
20 20 20 19 19 18 19 19 18 16 14 13 12 12 11 10 9 9 9 8 8 8 8 8 7 7 7 7 6 6 5 4 4 3 3 3 2 2 2 2 2 3 3 4 5 6 7 8 9 8 8 9 9 8 8 9 12 13 14 15 16 16 15 14 12 12 12 11 12 13 16 13 11 14 13 15 14 12 11 9 7 6 8 12 14
20 20 20 19 18 18 18 18 17 16 15 14 12 12 11 10 10 9 9 8 8 8 8 8 8 8 8 7 7 6 5 4 3 3 3 3 3 2 2 2 2 2 3 4 5 5 6 7 8 8 7 8 8 8 9 9 11 13 14 16 17 17 17 15 13 12 12 12 12 14 16 13 11 14 13 13 13 13 12 9 7 5 7 10 12
21 21 20 19 18 17 17 17 17 16 15 14 12 11 11 10 10 9 9 8 8 7 7 8 8 8 7 7 6 6 5 4 3 2 2 1 2 2 2 2 2 2 3 4 5 5 6 7 7 7 7 6 7 8 9 9 10 12 14 17 18 18 18 16 14 13 12 12 13 15 16 14 13 14 14 13 12 13 12 9 7 6 9 10 11
21 21 20 19 18 17 16 16 17 17 15 13 12 11 11 10 9 9 9 8 8 7 6 7 7 7 6 6 6 5 5 4 3 2 2 1 1 1 2 2 2 2 2 3 5 6 7 7 7 7 6 6 7 7 8 8 10 13 15 17 18 18 19 17 16 15 13 13 13 15 17 15 13 14 14 13 12 13 11 10 7 5 10 11 10
20 21 20 18 17 18 16 15 16 17 15 13 13 12 11 10 10 9 9 9 8 7 7 7 7 7 6 5 5 5 4 4 3 3 2 2 1 1 2 1 1 1 2 4 5 6 6 6 7 6 6 6 6 6 6 8 10 12 15 17 17 18 19 18 19 17 15 13 14 15 18 17 14 13 13 13 12 12 10 11 8 4 10 12 11
20 20 18 17 17 18 16 15 16 16 15 14 14 13 12 11 10 10 9 9 9 8 8 7 7 7 6 6 5 5 4 4 3 3 3 3 3 2 1 1 1 2 3 4 5 5 6 6 7 6 5 5 5 5 6 6 7 9 13 16 18 19 19 20 21 19 16 14 14 16 18 18 15 13 12 13 12 11 10 11 9 4 9 13 11
20 19 17 17 16 17 16 16 16 16 15 15 14 13 12 11 11 11 10 10 9 9 8 8 8 7 7 7 6 5 4 4 4 4 4 4 3 3 3 2 2 2 3 3 4 5 6 6 7 6 5 5 5 5 6 5 5 7 10 14 17 19 20 20 19 18 18 16 15 16 18 17 15 12 11 12 12 11 11 12 10 5 9 13 12
20 18 17 17 16 16 16 16 16 16 15 15 15 14 13 12 12 11 11 10 10 10 9 10 9 9 9 8 7 6 5 5 5 5 5 5 5 4 4 3 2 2 3 4 6 7 8 8 7 7 6 5 5 4 5 5 5 6 8 11 14 18 19 18 17 17 18 18 17 16 17 16 14 13 12 12 12 11 11 12 11 8 11 12 12
20 19 17 17 17 16 17 16 17 17 16 16 16 15 14 13 13 13 12 12 11 11 11 11 11 10 10 9 8 7 7 6 6 6 6 6 5 5 5 4 3 2 3 4 6 7 9 9 9 8 7 6 5 5 5 5 4 5 7 9 12 15 17 17 17 18 18 18 18 17 16 16 15 14 12 12 12 12 11 11 11 11 11 10 11
20 19 18 18 18 17 17 16 17 17 17 16 15 15 15 14 14 14 13 13 13 12 12 11 11 11 11 10 9 8 8 7 6 7 6 5 5 5 4 4 2 2 2 3 4 6 7 8 9 8 7 6 6 6 5 5 4 4 5 7 9 12 15 16 16 17 19 18 17 17 17 16 15 15 14 13 13 12 12 12 11 11 10 8 8
20 20 18 19 19 18 17 17 17 17 16 16 15 14 15 15 15 15 14 14 13 12 12 11 11 11 11 10 9 9 8 7 6 6 5 4 3 3 3 3 3 2 3 3 4 5 6 7 8 8 7 7 6 6 6 5 4 4 3 4 7 11 13 14 16 18 19 19 18 16 17 18 16 15 14 13 13 13 11 11 11 10 9 7 6
21 21 20 20 19 19 18 18 17 17 16 15 15 15 15 17 16 15 15 14 13 12 12 11 11 11 10 10 9 8 8 7 6 5 4 3 2 2 2 3 4 4 4 4 5 6 6 7 8 8 7 7 6 6 6 5 5 4 3 3 5 8 11 13 15 17 19 19 18 16 17 18 18 16 15 13 13 13 11 11 11 9 9 8 6
22 23 21 21 20 20 19 19 18 17 17 16 16 15 16 17 17 16 14 13 13 12 12 11 11 11 10 9 8 7 7 6 5 4 3 2 3 3 3 4 5 5 5 5 6 7 7 7 7 7 7 7 7 6 5 5 6 5 4 4 3 4 9 13 14 16 18 18 17 17 17 18 18 17 15 13 13 13 12 11 11 10 9 9 7
24 23 22 22 22 21 20 20 19 18 18 17 17 16 16 16 16 15 14 13 12 11 11 10 10 9 9 8 8 7 6 5 4 3 3 3 3 4 5 6 6 7 7 7 7 7 8 8 8 7 7 7 7 7 5 5 5 6 5 5 4 2 4 9 12 14 17 18 17 17 18 18 17 16 15 14 13 13 13 12 11 11 10 9 8
23 23 23 23 23 22 21 20 20 19 19 18 18 17 17 16 15 14 13 12 11 10 10 9 8 8 8 7 7 6 5 4 3 2 3 3 5 6 7 8 8 8 8 9 8 8 8 8 8 8 7 7 7 7 6 5 4 5 5 5 5 4 2 4 9 12 15 17 17 18 19 19 17 16 15 15 14 13 13 13 12 12 12 11 9
24 23 24 24 24 23 21 21 20 20 20 19 19 18 17 16 15 14 14 13 11 10 8 8 7 6 6 6 6 6 4 2 1 1 3 5 6 7 8 9 10 9 9 10 9 8 8 7 7 8 7 6 6 6 6 6 5 5 5 5 5 5 4 5 7 10 12 15 17 17 18 18 17 16 16 15 14 14 14 14 14 13 13 12 11
24 23 23 23 24 24 23 22 21 21 20 20 20 19 18 17 16 15 14 13 12 10 8 7 6 5 5 5 6 5 5 3 2 2 4 6 7 7 9 10 11 10 10 10 10 9 9 8 7 7 8 7 6 6 7 7 6 5 5 5 5 5 5 6 7 9 12 14 16 17 18 18 17 17 16 16 15 15 15 15 15 15 14 14 12
23 23 23 23 24 24 24 24 22 22 21 21 20 20 19 18 17 16 15 14 13 11 9 8 7 6 6 6 6 6 6 5 5 5 5 6 7 8 9 10 11 11 11 11 10 9 9 8 7 7 7 7 6 6 7 7 7 6 5 5 5 6 6 6 7 9 11 13 16 17 18 18 19 18 18 18 17 16 17 16 17 16 16 15 13
23 23 23 23 23 23 24 25 24 23 22 21 21 21 20 19 18 17 16 15 13 11 10 10 8 7 7 7 6 5 6 7 7 7 7 8 8 9 9 10 12 12 12 11 10 10 9 9 8 8 7 7 7 6 6 8 7 7 6 6 6 6 6 7 8 8 10 12 14 16 18 18 19 19 19 19 18 18 18 18 18 18 18 17 15
22 23 23 24 23 24 25 25 24 24 23 22 21 21 20 19 18 17 16 15 13 12 11 11 10 9 8 7 7 6 6 7 7 8 9 9 10 10 11 12 14 14 13 13 11 10 10 9 9 9 9 9 8 6 6 7 8 7 6 6 6 6 6 7 8 8 9 11 12 14 16 17 18 19 19 20 20 20 20 19 19 19 19 18 18
21 23 24 23 24 25 25 24 24 24 23 23 22 21 20 19 18 17 17 15 14 13 12 12 11 10 9 8 8 9 8 8 8 8 10 10 11 11 12 14 16 15 13 14 12 11 11 10 10 10 11 11 9 8 7 7 7 7 6 6 6 7 7 7 8 8 8 10 11 12 14 15 17 19 19 20 21 20 20 19 19 20 20 19 19
20 21 23 23 24 25 25 25 24 24 24 23 22 22 20 19 18 18 17 16 14 14 13 13 12 11 10 10 10 10 10 10 9 10 11 11 12 12 13 16 18 15 13 13 13 12 11 11 11 11 12 12 11 10 9 7 7 7 7 6 6 7 7 7 8 9 8 10 11 11 12 14 16 17 19 21 21 21 20 20 20 20 20 20 19
20 18 20 23 23 24 25 25 25 24 24 24 23 21 20 19 18 18 17 15 15 14 14 13 12 11 11 11 10 11 11 10 10 11 12 12 13 13 15 17 18 15 12 12 12 11 11 12 12 12 12 12 12 11 11 10 8 7 7 7 6 6 7 8 9 10 9 10 11 11 12 13 14 16 17 19 21 22 22 21 21 21 20 20 20
22 19 21 21 22 24 25 25 25 25 24 23 23 21 20 19 19 18 17 15 15 15 14 13 12 12 12 12 11 11 12 12 12 13 14 14 14 14 16 18 18 13 10 11 11 11 11 12 13 13 13 12 12 12 12 12 11 9 8 7 7 7 8 9 9 11 11 11 11 12 12 13 14 14 15 16 19 21 22 22 22 21 21 21 20
26 24 23 21 20 21 23 25 25 25 24 23 23 21 20 20 18 18 17 15 15 15 15 14 14 14 14 14 14 14 14 15 15 15 16 16 15 14 16 18 18 14 11 10 11 11 12 12 13 14 14 13 13 12 13 13 13 11 9 9 8 8 9 10 10 11 11 12 12 13 13 13 13 14 14 15 17 19 20 22 22 22 22 22 21
29 27 26 24 22 21 21 24 25 24 23 23 22 21 20 19 18 17 16 15 15 16 16 15 16 17 15 14 15 16 15 14 14 15 16 16 14 14 17 18 17 14 12 11 11 12 13 14 14 14 15 15 15 14 13 14 14 13 12 11 10 10 10 11 11 12 11 12 13 13 13 13 13 14 14 15 16 18 19 21 22 23 23 22 22
30 30 28 27 25 23 22 22 23 24 23 22 21 21 21 20 19 17 16 17 17 17 16 16 18 17 14 15 15 14 13 13 13 14 15 15 15 15 17 16 14 14 14 14 14 15 15 15 16 15 16 17 16 14 14 14 14 14 14 13 13 11 11 11 12 12 12 13 14 15 14 14 14 14 15 15 16 17 19 20 21 23 23 22 23
31 31 30 30 29 26 25 23 22 23 23 23 21 20 21 21 20 18 17 18 17 17 16 16 18 15 14 15 15 13 13 13 13 13 15 16 17 17 16 14 14 14 15 16 17 17 17 16 16 15 15 16 15 13 12 13 14 15 16 15 14 13 12 11 12 13 13 13 14 16 16 15 15 15 16 15 15 16 18 19 20 21 22 22 23
32 32 30 31 32 28 25 24 23 24 24 24 22 21 21 22 22 20 19 19 18 18 17 17 17 16 15 16 17 15 14 14 12 13 14 15 18 17 14 14 14 14 16 17 18 19 19 17 16 15 14 15 14 12 11 11 12 14 16 16 16 15 14 12 13 14 14 13 13 15 16 16 16 16 17 17 15 16 18 19 19 20 21 22 22
32 33 32 32 33 29 27 25 24 24 25 26 25 23 22 23 23 21 20 19 18 18 19 19 18 16 14 16 18 16 14 14 13 13 13 15 19 18 14 14 14 15 16 16 17 18 17 15 15 14 14 13 11 10 9 9 9 11 13 15 15 16 15 13 13 14 15 14 13 14 14 15 16 17 17 18 17 17 17 19 19 20 21 21 22
32 33 34 34 33 32 30 27 25 24 25 27 26 24 23 23 24 22 20 19 18 19 21 20 16 13 12 16 17 13 13 15 14 14 15 18 20 16 14 14 14 14 14 13 13 13 13 12 11 10 11 11 9 8 7 6 7 8 9 11 12 14 14 13 13 13 13 15 15 15 15 15 16 16 17 18 18 18 18 18 19 20 21 21 22
33 32 33 33 33 33 31 28 27 26 24 26 25 23 24 25 24 21 19 18 18 19 20 17 13 11 12 13 13 12 14 16 16 16 16 17 17 15 15 14 13 11 10 10 10 11 11 9 7 7 8 7 7 6 6 5 6 6 6 7 7 10 12 13 13 12 12 13 15 16 16 16 16 16 16 17 18 19 19 20 20 20 21 21 22
30 30 30 29 29 31 32 29 28 27 25 26 25 24 24 24 24 22 19 18 16 16 16 15 12 12 11 10 11 13 14 15 15 16 15 14 15 14 12 10 8 7 7 8 9 10 8 5 6 6 6 5 5 5 5 4 4 4 3 4 4 6 8 9 10 10 11 11 13 15 15 16 16 16 16 17 18 19 20 21 21 22 22 22 22
25 28 29 28 25 27 30 30 28 27 26 27 26 25 24 23 24 23 20 17 15 14 12 12 12 12 11 11 12 13 13 13 14 15 14 13 12 10 8 6 5 5 5 6 7 7 5 6 6 6 6 4 4 4 4 4 4 3 2 2 3 4 5 5 6 6 7 8 9 12 14 16 16 17 18 18 18 18 19 20 22 23 23 23 23
21 23 27 29 26 24 27 28 27 26 25 25 25 25 24 23 25 23 19 16 14 12 11 11 11 11 10 10 11 11 11 12 13 13 12 10 8 7 5 3 3 4 4 5 6 7 9 8 7 6 5 4 3 4 4 4 4 4 3 3 3 3 3 4 5 4 4 4 6 8 10 13 15 17 18 19 18 18 18 19 20 21 22 23 24
16 18 24 30 27 23 24 25 25 25 23 21 21 23 22 23 24 20 16 13 11 10 10 10 9 8 8 9 10 10 10 10 9 8 7 6 4 3 2 1 2 3 5 6 7 9 10 10 8 7 7 6 6 5 4 4 4 4 4 6 6 6 6 6 7 6 6 6 5 5 6 8 11 14 17 18 19 19 19 19 19 20 21 22 23
12 14 21 29 27 22 21 22 22 22 21 20 20 21 20 21 21 16 12 10 9 9 8 8 7 7 7 9 9 8 7 7 5 3 3 2 2 2 2 1 2 2 5 6 7 9 9 10 10 10 9 9 8 6 5 5 6 5 5 6 7 8 10 10 10 10 11 11 9 7 6 7 7 10 12 15 16 18 19 20 20 20 21 21 22
9 11 18 24 26 22 20 22 23 21 21 21 20 19 19 20 18 13 11 10 8 8 7 6 5 6 7 8 7 5 4 4 3 3 2 2 1 1 1 2 2 3 4 5 5 7 9 11 12 11 9 10 9 9 8 8 8 7 6 6 6 6 8 10 11 12 13 15 16 14 11 10 9 9 10 11 12 14 15 17 18 19 20 21 22
8 10 15 19 23 22 22 23 22 21 20 20 19 17 17 17 14 12 11 9 8 7 6 5 5 5 6 6 4 2 3 4 5 4 3 2 1 1 1 1 2 3 5 5 5 7 10 13 15 13 11 11 11 11 10 9 8 7 7 6 6 6 5 6 8 10 11 14 17 17 14 12 12 11 11 11 11 12 13 14 15 16 18 19 21
7 8 12 16 20 22 22 22 20 19 19 19 18 16 15 15 13 11 10 8 7 6 5 4 5 5 5 3 1 3 5 5 5 5 4 3 1 1 1 2 3 5 7 8 8 10 12 13 14 14 13 12 13 13 12 10 8 7 7 7 6 6 7 7 8 9 9 10 12 15 14 13 13 11 10 10 11 12 13 14 16 17 18 19 19
8 9 12 15 18 19 20 19 18 18 18 17 15 14 14 14 12 10 9 8 7 5 4 4 5 5 4 2 3 4 5 4 4 5 5 4 2 2 3 3 5 7 9 10 10 11 12 13 14 15 14 13 13 12 12 11 10 9 8 8 8 8 8 8 7 8 9 9 10 13 12 11 12 11 8 8 9 10 12 14 15 17 18 19 19
Wind_Direction
167 160 163 161 154 149 145 145 145 145 148 150 145 140 139 140 140 138 139 141 141 140 139 134 135 139 144 146 151 161 168 176 180 183 186 189 192 195 200 197 197 198 197 197 196 195 196 196 198 202 198 194 190 184 181 178 175 169 164 150 143 142 136 128 122 116 117 124 117 122 127 123 122 124 127 127 126 125 126 126 125 124 119 115 114
161 158 161 159 151 148 149 149 150 152 154 154 148 142 140 142 143 141 142 142 139 139 137 133 136 138 142 143 143 154 165 174 177 179 180 185 192 195 199 201 203 205 205 205 206 206 209 213 215 214 211 206 201 198 197 196 191 187 181 164 152 148 141 136 135 132 133 130 122 129 131 126 127 130 132 131 130 130 130 127 124 123 119 116 115
157 155 156 155 149 149 153 152 154 156 156 155 151 147 141 139 141 142 144 143 141 141 141 141 141 142 143 142 142 147 158 170 176 178 179 184 189 193 196 202 207 211 215 216 216 217 220 225 226 223 220 213 210 210 210 213 205 202 202 178 164 159 154 153 148 142 142 131 126 133 134 130 132 135 136 135 134 135 132 126 123 122 119 117 115
156 152 155 154 150 153 157 155 155 156 154 152 151 148 141 138 141 145 148 149 150 150 149 148 145 145 144 144 147 145 149 161 172 176 180 184 188 196 202 209 214 218 222 223 225 224 227 231 233 232 228 222 219 218 219 221 213 208 203 178 169 172 169 166 155 143 138 130 134 140 138 137 138 140 140 138 138 138 134 128 126 123 121 120 115
157 154 156 154 153 158 159 156 153 153 151 149 150 148 146 145 148 149 151 154 159 161 157 156 153 152 149 147 148 147 149 157 165 170 178 184 189 199 209 217 221 225 227 229 231 231 232 235 238 240 238 235 228 226 225 224 218 207 196 178 179 181 176 174 160 145 138 137 148 147 141 142 144 145 144 143 144 141 136 131 128 124 122 120 116
159 156 156 156 158 161 158 155 153 154 152 151 152 152 152 151 152 151 153 157 160 163 164 164 161 159 158 155 152 150 152 159 162 165 177 182 187 196 207 217 224 231 234 236 235 234 236 237 239 241 242 242 236 234 231 227 221 211 200 185 185 181 176 176 165 153 148 152 161 153 145 146 149 150 149 147 144 140 137 132 127 123 121 120 121
160 157 159 160 161 160 155 154 154 155 156 156 156 155 155 153 153 153 153 155 155 158 162 166 164 162 161 159 157 155 155 162 166 170 180 186 192 200 211 220 228 237 242 242 240 240 241 240 241 241 240 240 238 239 234 227 221 217 208 194 189 184 178 177 171 164 162 162 163 159 151 150 154 153 148 141 135 132 132 129 123 122 122 122 124
163 160 161 163 162 158 155 156 157 158 160 158 158 157 155 156 158 156 155 155 155 154 156 160 160 159 156 153 156 157 159 166 172 178 189 196 205 213 222 230 237 243 248 251 252 250 250 248 247 245 239 237 234 236 235 226 223 218 207 197 192 187 181 177 175 173 171 162 162 165 157 154 160 150 133 123 115 111 113 117 116 118 122 123 126
165 162 163 165 161 158 158 158 159 161 162 160 160 159 157 160 162 160 160 160 159 156 155 157 155 155 151 149 154 158 162 172 177 183 197 207 214 222 228 237 244 248 254 259 262 256 255 255 255 252 249 246 236 231 230 225 223 215 201 197 194 190 185 180 180 177 171 163 168 172 162 162 161 136 123 121 115 109 100 95 107 119 123 126 128
166 163 165 166 162 161 162 160 161 163 164 163 162 163 164 163 165 165 165 165 164 162 160 158 155 152 152 152 155 161 166 172 179 187 200 213 220 228 234 246 253 260 264 266 271 270 270 270 269 267 267 264 250 235 228 224 221 211 200 198 195 194 190 184 183 177 173 171 175 173 164 171 157 134 135 134 129 122 104 86 97 121 127 129 129
167 165 167 166 165 165 164 162 163 164 165 164 165 170 171 169 168 167 166 166 166 167 164 159 154 149 153 155 156 162 164 168 176 188 197 209 218 228 236 251 262 271 274 274 278 281 285 283 282 282 280 275 264 250 237 225 218 213 204 200 196 196 195 188 184 179 179 176 176 173 167 173 155 142 147 140 134 124 105 94 99 115 132 132 129
167 167 167 167 167 166 164 165 164 164 166 167 169 172 174 172 169 166 165 164 164 166 165 158 152 151 154 156 159 163 163 166 172 182 194 209 216 226 229 240 256 268 273 276 280 284 290 290 292 292 288 281 270 254 242 226 213 213 207 201 199 198 199 194 186 184 185 176 172 173 168 168 155 147 150 143 137 124 109 110 108 110 143 141 133
167 168 168 168 168 165 164 166 165 165 167 168 170 171 172 170 166 163 161 160 163 165 167 164 158 158 161 161 161 162 162 161 159 165 173 205 225 228 228 235 256 268 277 289 299 303 302 299 298 297 293 282 268 254 246 232 211 209 204 201 200 196 199 198 189 188 190 178 169 173 167 163 158 153 152 146 139 127 116 121 118 119 149 151 139
170 169 170 170 169 164 164 166 166 166 168 169 170 169 165 162 160 159 159 159 160 160 165 165 164 164 167 166 164 162 160 155 149 149 141 137 184 215 222 229 245 267 295 316 324 323 317 311 308 305 300 291 277 263 251 240 216 205 202 203 202 196 197 200 194 189 192 182 170 173 168 162 163 157 152 148 141 133 126 127 125 129 151 157 148
173 172 172 171 170 164 165 167 166 168 170 171 169 165 161 160 161 162 163 163 162 163 163 161 164 166 167 164 163 163 159 157 150 147 147 144 144 170 193 204 246 331 337 339 334 331 329 324 320 313 309 300 286 273 258 241 218 206 204 204 205 203 200 202 200 192 190 187 173 172 170 166 166 165 157 150 147 142 138 135 136 148 154 157 154
177 175 172 173 173 165 166 168 168 170 172 171 168 164 162 165 168 170 169 168 168 168 165 162 163 160 157 153 153 155 154 153 145 143 144 140 126 112 100 68 22 356 350 348 338 334 331 327 324 318 315 308 296 286 270 246 222 211 208 205 204 205 203 202 201 192 188 189 178 171 172 172 170 173 167 156 155 152 150 147 148 161 155 157 159
179 178 174 176 175 165 166 170 170 171 171 169 167 166 167 171 173 174 171 170 168 165 162 155 152 147 143 139 138 134 131 127 118 120 115 108 90 70 59 46 29 9 1 5 1 355 343 334 333 327 320 316 309 300 286 275 256 229 214 207 204 205 206 203 200 195 191 191 183 174 176 178 175 179 177 165 160 158 159 152 152 171 158 157 160
182 180 177 179 176 168 168 172 175 172 169 167 167 168 170 174 175 173 168 165 161 157 153 144 138 133 129 123 119 115 111 106 99 98 92 87 78 68 66 59 49 30 16 21 21 16 8 359 349 338 328 324 317 310 305 303 291 260 233 215 208 206 207 204 200 203 200 194 190 182 180 183 183 186 187 178 169 166 168 158 159 177 163 158 160
185 183 181 181 176 171 171 175 178 172 169 168 169 169 169 173 173 167 160 157 154 151 146 139 135 128 124 118 115 113 112 110 104 101 96 90 85 80 75 69 58 34 12 12 15 14 15 9 2 350 337 331 326 322 320 317 301 277 255 231 220 211 208 206 202 206 207 201 195 191 187 187 188 189 192 188 182 176 174 164 164 171 162 158 161
188 187 184 182 177 173 173 177 177 171 168 168 171 169 166 170 168 161 156 154 151 148 145 139 135 128 124 121 119 120 118 117 115 112 108 102 94 83 73 65 53 26 4 353 353 359 6 7 3 356 344 338 337 332 328 327 316 291 269 250 239 224 215 214 210 209 210 206 201 197 195 194 192 190 192 194 192 184 173 167 166 167 162 161 162
189 191 188 184 180 175 175 178 176 171 167 167 172 169 165 166 166 162 158 156 153 150 150 144 139 132 130 129 126 126 123 121 117 113 110 105 97 81 61 48 34 16 2 349 342 347 355 1 1 355 348 342 341 336 334 329 312 304 292 256 240 231 220 217 216 213 212 209 206 202 199 200 199 195 194 195 196 187 174 171 169 168 168 169 172
190 191 192 188 182 177 177 178 177 172 169 168 169 171 169 166 165 166 162 159 156 152 151 148 143 139 139 139 135 133 129 127 122 112 101 85 68 42 26 17 7 1 356 346 339 340 345 355 358 354 352 350 348 338 332 321 307 314 310 276 258 245 225 214 212 213 213 211 209 206 205 204 203 202 199 197 197 189 178 176 174 171 174 177 183
192 192 192 190 186 181 180 179 178 175 171 170 170 173 175 170 166 167 164 159 156 153 151 149 146 144 145 144 142 140 133 128 124 114 94 64 31 9 0 355 355 355 352 349 341 335 337 347 353 350 350 353 355 344 331 318 310 317 317 309 315 265 221 210 210 212 212 211 211 210 209 208 207 207 206 203 202 195 186 184 182 179 181 183 183
193 192 192 191 189 185 183 181 180 179 175 174 175 176 179 177 171 167 166 162 159 157 154 154 151 148 150 151 151 147 139 128 117 99 71 38 13 358 347 344 349 350 346 347 344 336 333 337 342 343 346 350 352 349 338 323 309 307 308 313 320 299 216 205 207 211 212 212 212 211 212 211 209 210 209 207 206 203 197 193 192 189 192 193 186
194 196 194 192 190 187 186 185 183 182 181 180 180 180 182 183 180 174 172 169 166 163 160 161 158 158 161 164 167 161 152 136 114 82 38 0 345 338 333 331 333 337 335 338 340 336 332 330 334 339 340 340 342 346 340 328 310 296 289 293 300 300 274 214 208 209 212 214 213 213 214 211 210 211 210 209 208 207 204 203 201 199 201 204 197
198 200 198 194 191 189 188 188 188 187 187 186 186 187 187 189 189 186 183 180 179 175 170 168 166 168 175 182 186 186 186 178 163 348 350 338 332 324 317 312 310 315 318 322 328 330 330 326 328 336 335 328 330 336 336 331 316 296 279 267 271 270 254 227 218 211 212 214 214 217 219 212 210 212 212 211 211 210 208 209 210 208 208 209 206
201 202 201 200 196 193 191 191 193 192 191 191 192 194 194 195 196 197 194 190 191 190 185 181 182 182 190 203 209 215 219 226 251 293 323 328 337 335 320 306 296 296 299 305 312 318 324 322 318 330 334 326 322 324 326 327 320 305 286 268 260 255 243 226 220 215 212 214 217 221 222 217 213 214 217 217 216 215 213 212 215 214 213 213 209
204 204 204 204 201 198 195 195 196 196 196 195 197 198 200 201 203 206 205 202 202 202 201 201 203 205 213 223 229 234 237 252 267 279 300 306 323 335 331 321 306 292 285 289 297 303 312 316 311 314 323 324 320 322 320 318 318 315 302 282 267 258 248 235 229 222 215 215 217 220 222 221 218 217 220 223 223 221 218 215 217 218 217 218 214
209 207 206 206 205 203 201 199 199 199 200 200 202 202 204 206 208 212 213 213 214 212 214 216 217 217 217 223 229 239 249 263 272 276 281 284 301 314 319 324 319 304 283 277 284 288 296 306 306 301 305 313 316 320 319 313 309 311 313 302 284 269 257 245 241 235 225 218 217 219 222 223 222 222 221 224 226 224 223 218 218 221 221 222 221
212 210 209 209 207 207 206 204 203 203 203 204 206 206 207 209 210 214 215 219 219 218 221 222 220 213 208 216 228 238 251 262 268 272 273 280 293 302 308 314 318 311 288 274 275 277 283 296 301 297 293 296 305 310 314 314 306 302 310 311 299 282 269 254 244 240 235 225 217 216 220 222 224 225 222 224 227 226 226 223 221 223 225 227 227
215 214 212 212 211 210 210 208 207 207 207 208 210 210 211 212 214 216 218 221 222 221 222 218 213 208 210 222 235 241 250 259 263 267 272 282 290 297 306 310 313 312 292 275 271 271 275 286 292 293 290 288 292 298 304 308 304 301 301 305 299 285 275 259 247 244 239 229 220 215 218 222 223 225 223 223 226 228 227 227 226 225 226 231 232
217 217 215 216 215 214 212 210 210 209 210 211 212 214 216 217 218 220 221 221 221 219 215 211 209 213 222 231 241 245 249 257 264 270 275 282 288 295 304 308 309 307 290 274 268 266 271 279 285 288 289 285 283 287 294 295 292 296 294 291 285 280 276 259 248 246 239 228 225 221 219 222 224 225 224 222 223 227 229 228 229 228 226 230 235
219 218 216 218 219 218 215 212 212 212 212 213 214 216 218 219 220 221 220 218 217 214 211 213 217 224 232 238 247 249 251 260 268 276 281 285 287 292 299 305 310 303 284 273 268 267 271 277 283 285 285 283 280 280 285 286 283 285 288 283 269 265 268 260 249 245 242 233 230 228 220 220 224 226 224 221 221 225 229 229 230 230 229 231 235
221 219 218 219 220 220 219 216 214 214 214 214 215 216 217 219 221 221 217 214 214 214 217 222 227 234 240 245 253 256 260 269 275 280 281 282 283 289 295 302 309 303 283 276 274 275 277 277 279 280 279 277 277 278 279 282 279 277 282 281 267 255 255 257 251 243 242 242 239 235 226 219 222 225 223 220 219 221 227 230 232 232 232 233 235
222 220 221 222 221 221 221 220 218 217 216 217 217 216 218 219 220 219 214 215 218 222 229 233 237 241 243 248 257 263 268 273 276 276 275 275 278 284 293 301 307 303 291 283 280 279 278 276 276 277 278 276 274 274 275 276 274 271 273 273 269 263 255 251 248 241 238 242 243 242 237 226 220 221 223 222 220 219 223 227 230 232 234 234 235
227 225 225 224 224 224 223 224 222 219 218 221 221 218 217 217 217 215 216 222 227 233 237 241 245 247 252 256 258 261 263 267 270 270 271 273 273 279 292 301 302 299 295 288 281 280 277 271 272 276 278 278 277 277 276 269 265 265 266 264 262 265 263 252 245 242 238 237 240 241 242 238 229 223 223 226 224 223 224 225 227 229 232 234 236
233 232 231 228 226 225 226 227 224 222 222 223 223 219 217 216 216 215 218 226 232 238 240 244 250 256 268 267 261 259 257 261 264 264 268 274 280 284 291 295 293 293 294 290 286 288 283 273 276 282 279 279 280 280 277 267 258 256 258 258 257 259 263 258 246 240 236 235 236 237 239 242 240 234 228 228 228 227 227 227 227 227 228 231 234
236 235 236 235 232 228 229 231 225 222 222 222 222 219 218 218 219 220 222 228 236 243 245 246 251 261 272 270 267 264 265 272 270 265 267 279 292 294 291 287 284 289 290 289 291 292 289 284 287 290 285 284 284 282 278 269 259 253 253 252 252 252 256 261 252 241 237 235 235 234 236 238 241 241 237 232 229 229 228 228 229 229 228 228 231
236 236 235 235 235 232 231 231 228 225 223 222 223 219 219 220 222 226 227 232 239 246 248 246 255 271 279 276 272 270 278 287 281 274 273 283 295 298 294 287 285 289 288 289 292 292 292 292 292 291 289 289 288 289 285 276 266 256 250 246 246 248 251 258 256 245 240 239 237 235 235 236 238 241 242 239 233 229 229 229 230 230 230 229 230
239 239 235 233 233 232 230 225 223 226 225 227 229 225 222 224 225 228 232 237 243 249 248 247 257 272 279 277 272 275 289 292 286 288 289 290 294 296 295 291 293 297 292 291 293 292 292 294 293 294 294 292 292 295 288 278 272 258 250 247 245 245 248 256 257 248 243 242 242 240 239 238 239 239 241 243 240 234 230 228 229 231 231 232 233
241 240 237 234 230 228 229 223 218 222 226 230 234 232 229 229 229 231 235 241 246 250 250 252 261 271 278 279 276 283 295 295 297 300 295 290 291 294 296 300 305 303 299 297 297 295 296 297 295 294 295 298 304 300 288 279 275 267 264 261 251 243 245 252 254 250 248 247 247 246 244 243 243 241 240 242 244 242 238 233 231 232 234 235 235
238 234 235 234 230 229 230 229 224 223 228 232 234 237 237 236 236 235 236 242 249 255 259 266 273 273 272 275 283 293 298 300 303 299 292 289 292 298 303 307 307 302 302 304 304 301 298 299 299 299 301 312 318 303 296 288 279 280 283 279 261 243 244 249 253 256 255 253 250 248 248 248 247 244 240 241 244 246 246 242 238 236 237 239 240
237 230 232 232 232 232 229 228 226 224 231 235 234 237 239 239 240 240 239 243 250 257 266 275 279 276 271 276 288 291 291 292 292 288 287 290 294 299 304 307 302 302 309 312 311 301 294 305 314 313 317 324 330 322 318 310 298 295 287 293 281 254 253 258 262 266 264 260 256 252 252 253 253 250 246 245 245 245 246 246 244 242 241 242 244
234 226 228 228 230 231 225 223 224 226 233 236 236 237 237 238 239 240 242 244 248 255 267 280 283 281 278 283 283 277 278 278 275 276 278 284 290 293 299 297 294 311 324 327 325 323 342 1 340 330 330 321 333 341 333 330 324 312 281 284 302 287 275 270 275 279 268 260 259 258 256 255 255 253 252 252 251 251 249 246 246 245 246 246 247
231 224 224 223 225 226 222 221 223 228 233 235 238 239 237 239 237 235 235 236 244 257 268 279 279 276 272 273 270 267 271 270 271 275 273 277 284 287 288 280 297 333 357 360 357 9 21 14 354 344 338 330 347 346 337 338 330 318 291 269 274 289 276 282 299 295 271 266 272 271 264 258 254 252 252 253 255 257 255 252 249 248 248 249 249
241 233 224 218 220 222 220 219 222 228 231 231 236 239 239 242 238 231 230 234 246 259 271 277 275 273 268 265 266 269 272 268 272 279 271 268 270 271 262 243 312 350 29 32 23 27 28 19 10 360 351 355 1 352 344 335 318 312 297 272 264 261 266 285 299 294 287 288 280 276 278 270 259 253 252 253 254 256 257 257 255 252 252 251 251
251 238 224 216 215 217 216 213 215 223 226 224 228 234 237 239 238 238 244 251 258 264 275 280 275 272 266 265 269 270 267 259 256 252 246 244 220 211 230 259 305 359 33 33 25 26 24 17 13 10 10 14 13 4 358 350 335 328 317 293 281 272 268 273 282 289 296 295 285 277 287 287 275 264 259 257 257 257 257 258 258 258 257 256 256
243 230 221 215 213 214 211 209 212 221 226 226 229 234 238 241 242 247 254 257 263 266 272 276 272 270 264 264 267 261 249 233 208 197 202 217 229 230 277 287 322 5 12 15 17 17 14 8 2 357 358 2 4 3 2 1 357 350 348 344 334 314 286 276 278 280 282 288 290 290 290 285 279 276 273 268 263 262 261 261 261 261 260 260 260
225 216 214 213 213 211 207 208 212 219 225 230 234 239 245 248 249 253 256 257 257 254 256 261 262 261 253 253 257 231 199 183 177 188 198 201 212 38 8 309 336 345 343 350 2 8 7 3 357 349 339 333 334 338 342 347 351 353 360 6 4 353 330 313 310 298 281 280 286 292 299 295 285 278 275 272 267 266 266 264 263 262 262 262 261
209 201 205 206 207 207 208 211 212 215 223 230 235 241 247 249 251 253 254 250 240 236 240 248 250 245 237 235 201 173 179 180 184 191 200 209 223 356 323 323 341 342 342 345 352 357 358 358 357 351 342 332 325 322 323 325 327 332 340 344 343 341 337 339 347 339 316 291 286 295 306 308 301 290 280 274 270 268 268 267 266 265 264 264 264
198 192 195 198 203 206 211 213 211 213 220 226 230 236 241 242 244 244 240 230 224 224 226 229 233 231 218 162 134 165 181 193 200 198 203 219 262 317 314 328 342 347 349 349 349 350 352 353 350 345 339 334 328 321 316 312 310 311 314 319 323 323 325 327 332 332 327 318 308 307 314 317 308 298 290 283 275 272 272 271 271 271 271 270 269
Height
1528 1530 1531 1532 1533 1534 1535 1536 1538 1538 1540 1540 1541 1543 1544 1545 1546 1547 1547 1548 1549 1550 1550 1551 1552 1553 1553 1553 1554 1554 1555 1556 1556 1557 1558 1559 1559 1560 1560 1561 1562 1563 1563 1564 1564 1565 1566 1567 1567 1567 1568 1569 1569 1570 1571 1571 1571 1572 1572 1573 1573 1573 1573 1573 1573 1573 1572 1572 1572 1572 1573 1573 1573 1574 1574 1574 1574 1574 1575 1575 1576 1577 1577 1578 1579
1529 1530 1532 1533 1534 1534 1536 1537 1538 1539 1540 1541 1542 1543 1544 1546 1546 1547 1548 1549 1550 1550 1551 1552 1553 1554 1554 1554 1555 1555 1556 1556 1557 1558 1558 1559 1560 1560 1561 1562 1562 1563 1563 1564 1565 1565 1566 1566 1567 1567 1568 1568 1569 1570 1571 1571 1572 1573 1573 1574 1574 1575 1575 1574 1574 1574 1573 1573 1572 1573 1573 1573 1574 1574 1574 1574 1574 1575 1575 1575 1576 1577 1578 1578 1579
1530 1531 1532 1534 1534 1535 1536 1538 1539 1540 1541 1542 1543 1544 1545 1546 1547 1548 1549 1550 1550 1551 1552 1553 1554 1554 1555 1555 1556 1556 1557 1557 1558 1558 1559 1560 1560 1561 1561 1562 1562 1563 1563 1564 1565 1565 1566 1566 1566 1567 1567 1568 1569 1570 1571 1572 1573 1574 1574 1574 1575 1576 1577 1576 1575 1574 1574 1574 1573 1573 1574 1574 1574 1574 1574 1574 1574 1575 1575 1575 1576 1578 1578 1579 1580
1530 1531 1533 1534 1534 1536 1537 1538 1540 1541 1542 1542 1544 1545 1546 1547 1548 1549 1550 1551 1551 1552 1553 1553 1554 1555 1556 1556 1557 1557 1557 1558 1558 1559 1560 1560 1561 1561 1562 1562 1563 1563 1564 1564 1565 1565 1565 1565 1566 1566 1567 1568 1568 1570 1572 1572 1573 1574 1574 1575 1575 1577 1578 1577 1575 1575 1574 1574 1574 1574 1574 1574 1574 1574 1574 1574 1574 1574 1574 1575 1576 1577 1578 1579 1580
1531 1532 1533 1534 1535 1537 1538 1539 1540 1541 1542 1543 1544 1546 1547 1548 1549 1550 1550 1551 1552 1553 1553 1554 1555 1555 1556 1557 1557 1558 1559 1559 1559 1560 1560 1561 1561 1562 1562 1563 1563 1564 1564 1564 1565 1565 1565 1565 1565 1566 1566 1567 1568 1570 1572 1573 1574 1574 1574 1576 1576 1577 1577 1577 1576 1575 1575 1575 1575 1574 1574 1574 1574 1574 1574 1574 1574 1574 1574 1574 1576 1577 1579 1580 1581
1532 1533 1534 1535 1536 1537 1539 1539 1540 1542 1543 1544 1545 1546 1548 1548 1549 1550 1551 1552 1553 1554 1554 1555 1555 1556 1557 1557 1558 1559 1559 1560 1560 1561 1561 1561 1562 1563 1563 1563 1563 1564 1564 1564 1564 1564 1564 1564 1565 1565 1566 1567 1568 1570 1572 1573 1574 1574 1575 1576 1576 1576 1577 1577 1576 1575 1575 1575 1575 1574 1574 1574 1574 1574 1575 1575 1575 1575 1575 1575 1576 1577 1579 1580 1581
1532 1534 1535 1536 1537 1538 1539 1540 1541 1542 1544 1545 1546 1547 1548 1549 1550 1551 1552 1553 1553 1554 1555 1555 1556 1556 1557 1558 1558 1559 1560 1560 1560 1561 1561 1562 1562 1563 1563 1563 1564 1564 1564 1564 1564 1564 1564 1564 1564 1565 1565 1566 1567 1569 1571 1573 1573 1574 1575 1575 1575 1576 1576 1576 1576 1575 1575 1575 1575 1575 1574 1574 1575 1575 1577 1579 1579 1579 1579 1578 1577 1577 1579 1581 1582
1533 1534 1535 1537 1537 1538 1539 1541 1542 1543 1545 1546 1547 1548 1549 1550 1551 1552 1552 1553 1554 1555 1555 1556 1556 1557 1558 1558 1559 1560 1560 1560 1561 1561 1561 1562 1562 1563 1563 1564 1564 1564 1564 1564 1564 1564 1563 1564 1564 1565 1565 1565 1567 1568 1570 1571 1572 1574 1575 1574 1575 1575 1575 1576 1576 1575 1575 1576 1576 1575 1575 1575 1575 1577 1580 1583 1584 1584 1584 1583 1581 1580 1580 1581 1582
1534 1535 1536 1537 1538 1539 1540 1542 1543 1544 1546 1546 1547 1548 1549 1550 1551 1552 1553 1554 1554 1555 1556 1556 1557 1557 1558 1559 1559 1560 1560 1561 1561 1561 1562 1562 1563 1563 1563 1564 1564 1564 1565 1565 1564 1564 1563 1563 1564 1565 1565 1565 1567 1567 1569 1571 1571 1572 1574 1574 1574 1574 1575 1575 1575 1575 1575 1576 1576 1575 1576 1577 1577 1580 1583 1584 1585 1584 1585 1585 1585 1584 1582 1583 1584
1534 1535 1537 1538 1539 1540 1541 1543 1544 1545 1546 1547 1548 1549 1550 1551 1552 1553 1553 1554 1555 1555 1556 1557 1557 1558 1559 1559 1560 1560 1560 1561 1561 1562 1562 1562 1563 1563 1564 1564 1564 1565 1565 1565 1564 1564 1563 1563 1564 1565 1565 1565 1567 1568 1569 1570 1570 1571 1573 1573 1573 1574 1574 1574 1574 1575 1575 1575 1576 1576 1577 1577 1579 1582 1583 1583 1584 1584 1584 1585 1587 1587 1586 1585 1585
1535 1536 1538 1539 1540 1541 1542 1544 1545 1546 1547 1548 1549 1550 1551 1552 1552 1553 1554 1555 1555 1556 1557 1557 1558 1558 1559 1559 1560 1560 1560 1561 1561 1562 1562 1563 1563 1563 1564 1564 1564 1565 1565 1565 1564 1564 1564 1564 1564 1565 1565 1565 1567 1568 1568 1569 1570 1570 1572 1572 1572 1573 1574 1574 1574 1575 1575 1576 1576 1577 1578 1578 1580 1582 1583 1583 1583 1584 1585 1585 1587 1589 1590 1588 1587
1536 1537 1539 1540 1541 1542 1543 1544 1546 1547 1548 1549 1550 1551 1552 1553 1553 1554 1555 1556 1556 1557 1557 1558 1558 1559 1559 1560 1560 1560 1561 1561 1562 1562 1563 1563 1563 1564 1564 1564 1564 1565 1565 1565 1564 1564 1564 1564 1564 1564 1565 1565 1566 1567 1567 1569 1569 1570 1571 1571 1571 1572 1573 1574 1574 1575 1576 1576 1577 1577 1578 1579 1581 1582 1583 1584 1584 1584 1585 1586 1588 1589 1591 1590 1589
1537 1538 1540 1541 1542 1543 1544 1545 1546 1547 1548 1550 1551 1552 1553 1554 1554 1555 1556 1556 1557 1557 1558 1558 1559 1559 1559 1560 1561 1561 1561 1562 1562 1563 1563 1563 1564 1564 1564 1564 1565 1565 1565 1564 1564 1564 1564 1564 1564 1564 1565 1565 1565 1566 1566 1567 1568 1568 1569 1570 1571 1572 1572 1574 1575 1575 1576 1577 1577 1578 1579 1580 1581 1582 1583 1584 1585 1585 1585 1587 1589 1590 1591 1592 1591
1538 1539 1541 1542 1543 1543 1545 1546 1547 1548 1549 1550 1551 1552 1553 1554 1555 1556 1557 1557 1558 1558 1558 1559 1559 1560 1560 1560 1561 1561 1562 1562 1562 1563 1563 1564 1564 1564 1564 1565 1565 1565 1565 1565 1564 1564 1564 1564 1564 1564 1564 1565 1564 1565 1566 1566 1567 1568 1568 1569 1570 1572 1572 1573 1574 1575 1577 1577 1577 1579 1580 1580 1582 1583 1584 1585 1586 1586 1586 1588 1590 1591 1591 1593 1593
1540 1540 1542 1543 1543 1544 1545 1547 1548 1549 1550 1551 1552 1553 1554 1555 1556 1557 1557 1558 1558 1558 1559 1559 1560 1560 1560 1561 1561 1561 1562 1562 1563 1563 1564 1564 1564 1564 1565 1565 1565 1565 1565 1565 1565 1564 1564 1564 1564 1564 1564 1564 1564 1565 1566 1566 1567 1567 1568 1568 1570 1572 1571 1572 1574 1576 1577 1578 1578 1579 1580 1581 1582 1583 1584 1586 1586 1587 1588 1589 1591 1592 1591 1593 1594
1541 1542 1543 1544 1544 1545 1546 1547 1549 1550 1551 1552 1553 1554 1555 1556 1557 1557 1558 1558 1559 1559 1559 1560 1560 1560 1561 1561 1561 1562 1562 1563 1563 1563 1564 1564 1564 1565 1565 1565 1565 1565 1565 1565 1565 1565 1564 1564 1564 1564 1563 1564 1564 1564 1565 1565 1566 1567 1568 1568 1570 1571 1571 1572 1575 1576 1577 1578 1578 1579 1580 1581 1582 1583 1585 1586 1586 1587 1588 1589 1591 1592 1592 1594 1595
1542 1543 1544 1545 1545 1546 1547 1548 1549 1550 1552 1553 1554 1555 1556 1557 1557 1558 1559 1559 1559 1560 1560 1560 1561 1561 1561 1562 1562 1563 1563 1564 1564 1564 1564 1565 1565 1565 1565 1566 1566 1566 1566 1565 1565 1565 1565 1564 1564 1564 1563 1563 1564 1564 1564 1563 1565 1567 1568 1569 1570 1571 1571 1572 1573 1575 1576 1577 1578 1579 1580 1581 1582 1583 1585 1586 1587 1587 1589 1590 1590 1592 1593 1594 1595
1543 1544 1545 1546 1546 1547 1548 1549 1550 1551 1552 1554 1555 1555 1556 1557 1558 1559 1559 1559 1560 1560 1561 1561 1561 1562 1562 1562 1563 1563 1564 1564 1565 1565 1565 1565 1566 1566 1566 1566 1567 1566 1566 1566 1565 1565 1565 1564 1564 1564 1563 1563 1563 1564 1564 1564 1564 1566 1567 1568 1569 1570 1571 1571 1572 1574 1576 1577 1578 1579 1580 1581 1582 1584 1585 1586 1587 1588 1589 1589 1590 1592 1593 1594 1595
1544 1545 1545 1546 1547 1548 1549 1550 1551 1552 1553 1554 1555 1556 1557 1558 1559 1559 1559 1560 1560 1561 1561 1562 1562 1562 1563 1563 1563 1563 1564 1564 1565 1565 1565 1566 1566 1567 1567 1567 1567 1567 1567 1566 1566 1565 1565 1564 1564 1563 1564 1564 1563 1564 1564 1565 1565 1565 1566 1566 1568 1569 1570 1570 1571 1574 1575 1577 1578 1578 1580 1581 1582 1584 1585 1586 1587 1588 1589 1590 1591 1592 1592 1593 1594
1544 1545 1546 1547 1548 1549 1550 1551 1552 1552 1553 1555 1556 1556 1557 1558 1559 1560 1560 1561 1561 1562 1562 1562 1563 1563 1563 1564 1564 1564 1564 1565 1565 1565 1566 1566 1566 1566 1567 1567 1567 1567 1567 1567 1566 1566 1565 1564 1564 1564 1564 1564 1564 1564 1564 1565 1565 1565 1565 1565 1566 1567 1568 1569 1570 1573 1574 1576 1577 1578 1579 1581 1582 1583 1585 1585 1586 1587 1589 1590 1591 1591 1592 1592 1593
1544 1545 1546 1548 1548 1549 1550 1551 1552 1553 1554 1555 1556 1557 1558 1558 1559 1560 1561 1561 1562 1562 1562 1563 1563 1564 1564 1564 1564 1565 1565 1565 1565 1566 1566 1566 1566 1566 1566 1566 1567 1567 1567 1567 1566 1566 1566 1565 1565 1564 1564 1564 1564 1564 1564 1564 1564 1565 1565 1565 1566 1566 1568 1569 1570 1572 1574 1575 1576 1577 1579 1580 1582 1583 1584 1585 1586 1587 1588 1589 1590 1590 1591 1592 1593
1544 1545 1546 1548 1549 1550 1551 1552 1553 1554 1555 1556 1557 1558 1559 1559 1560 1561 1561 1562 1562 1562 1563 1563 1564 1564 1564 1564 1565 1565 1565 1566 1566 1566 1566 1566 1566 1566 1566 1566 1566 1566 1567 1567 1566 1566 1566 1566 1565 1565 1565 1565 1565 1565 1565 1564 1564 1565 1566 1566 1566 1567 1568 1569 1570 1571 1573 1574 1576 1577 1578 1580 1581 1582 1584 1584 1585 1586 1587 1589 1589 1590 1591 1592 1592
1543 1545 1546 1547 1549 1550 1551 1552 1553 1554 1555 1556 1557 1558 1559 1560 1560 1561 1561 1562 1562 1562 1563 1563 1564 1564 1564 1565 1565 1565 1565 1566 1566 1566 1566 1566 1566 1566 1566 1566 1566 1566 1566 1566 1566 1566 1566 1566 1566 1566 1565 1565 1565 1566 1566 1564 1563 1564 1565 1566 1566 1567 1568 1569 1570 1571 1572 1574 1575 1576 1577 1579 1580 1581 1583 1584 1585 1586 1587 1588 1589 1590 1590 1591 1592
1543 1544 1546 1547 1549 1550 1551 1552 1553 1554 1555 1556 1557 1558 1559 1560 1560 1561 1561 1562 1562 1562 1563 1563 1564 1564 1565 1565 1565 1565 1566 1566 1566 1566 1566 1566 1566 1566 1566 1566 1566 1566 1566 1566 1566 1566 1566 1566 1566 1566 1566 1566 1566 1566 1566 1566 1565 1565 1565 1566 1566 1567 1569 1570 1570 1571 1572 1573 1574 1575 1576 1578 1579 1581 1582 1583 1584 1585 1587 1588 1588 1589 1590 1591 1592
1543 1544 1546 1547 1548 1550 1551 1552 1553 1554 1555 1556 1557 1558 1559 1560 1561 1561 1561 1562 1562 1562 1563 1564 1564 1564 1565 1565 1565 1565 1566 1566 1566 1566 1567 1567 1567 1567 1566 1566 1566 1566 1566 1566 1566 1566 1566 1566 1566 1566 1566 1566 1566 1566 1566 1567 1567 1567 1567 1567 1567 1568 1569 1569 1570 1571 1571 1572 1573 1574 1575 1576 1578 1580 1581 1582 1583 1584 1586 1587 1588 1589 1589 1590 1591
1542 1544 1545 1546 1548 1549 1550 1552 1553 1553 1555 1556 1557 1558 1559 1560 1561 1561 1561 1561 1562 1563 1563 1564 1564 1565 1565 1565 1565 1565 1566 1566 1566 1567 1567 1567 1567 1567 1567 1567 1566 1567 1567 1566 1566 1566 1566 1566 1566 1566 1566 1566 1566 1566 1567 1567 1567 1568 1568 1568 1568 1569 1569 1569 1569 1570 1570 1572 1572 1573 1575 1576 1577 1579 1580 1581 1582 1584 1585 1586 1588 1588 1589 1590 1591
1542 1543 1545 1546 1547 1548 1550 1551 1552 1553 1554 1555 1556 1557 1558 1559 1560 1561 1561 1561 1562 1562 1563 1564 1564 1565 1565 1565 1565 1565 1566 1566 1566 1567 1567 1567 1567 1567 1567 1567 1567 1567 1567 1567 1567 1566 1566 1566 1566 1566 1566 1566 1566 1566 1567 1567 1567 1567 1568 1568 1568 1569 1569 1569 1569 1569 1570 1571 1572 1573 1574 1575 1577 1578 1579 1581 1582 1583 1584 1586 1587 1588 1589 1590 1591
1541 1542 1544 1545 1546 1547 1549 1550 1551 1552 1553 1554 1555 1556 1557 1558 1559 1560 1561 1561 1561 1562 1563 1564 1564 1565 1565 1565 1565 1565 1566 1566 1566 1566 1567 1567 1567 1567 1566 1567 1567 1567 1567 1567 1567 1566 1566 1566 1566 1566 1566 1566 1566 1566 1566 1567 1567 1567 1567 1568 1568 1568 1568 1569 1569 1569 1569 1570 1571 1572 1573 1574 1576 1577 1578 1580 1581 1583 1584 1585 1586 1587 1588 1589 1591
1540 1541 1543 1544 1545 1547 1548 1549 1550 1551 1553 1553 1554 1555 1556 1557 1558 1559 1560 1561 1561 1562 1563 1563 1564 1564 1565 1565 1565 1565 1565 1565 1566 1566 1566 1566 1566 1566 1566 1566 1566 1566 1566 1566 1566 1566 1566 1566 1566 1566 1566 1566 1566 1566 1566 1566 1566 1566 1566 1567 1567 1567 1568 1568 1568 1569 1569 1569 1570 1571 1572 1573 1575 1576 1577 1579 1580 1582 1583 1584 1585 1587 1588 1589 1590
1539 1540 1542 1543 1544 1546 1547 1548 1550 1551 1552 1553 1554 1555 1555 1556 1557 1559 1559 1560 1561 1562 1562 1563 1564 1564 1564 1565 1565 1565 1565 1565 1565 1565 1565 1566 1566 1566 1566 1566 1566 1566 1566 1565 1565 1565 1565 1566 1565 1565 1565 1565 1565 1565 1565 1565 1565 1565 1566 1566 1566 1567 1567 1567 1568 1568 1568 1569 1569 1570 1571 1572 1574 1575 1576 1578 1579 1581 1582 1583 1584 1586 1587 1588 1589
1538 1539 1540 1542 1544 1545 1546 1548 1549 1550 1551 1552 1553 1554 1555 1556 1557 1558 1559 1559 1560 1561 1562 1562 1563 1563 1564 1564 1564 1564 1564 1564 1565 1565 1565 1565 1565 1565 1565 1565 1565 1565 1565 1565 1565 1565 1565 1565 1565 1565 1564 1564 1564 1564 1564 1564 1564 1565 1565 1565 1565 1565 1566 1566 1567 1567 1568 1568 1568 1569 1570 1571 1572 1574 1575 1576 1578 1579 1581 1582 1583 1585 1586 1587 1588
1537 1538 1540 1542 1543 1544 1546 1547 1548 1549 1550 1551 1552 1553 1554 1555 1556 1557 1557 1558 1559 1560 1561 1562 1562 1563 1563 1564 1564 1564 1564 1564 1564 1564 1564 1564 1564 1564 1564 1564 1564 1564 1564 1564 1564 1564 1564 1564 1564 1564 1564 1564 1563 1563 1563 1563 1564 1564 1564 1564 1564 1564 1565 1565 1566 1566 1567 1568 1568 1569 1569 1570 1571 1572 1574 1575 1576 1578 1579 1581 1582 1583 1584 1586 1587
1536 1538 1539 1541 1542 1543 1545 1546 1547 1549 1549 1550 1552 1553 1554 1555 1556 1556 1557 1558 1559 1559 1560 1561 1562 1563 1563 1564 1564 1564 1564 1564 1564 1564 1564 1563 1563 1563 1563 1563 1563 1563 1563 1563 1563 1563 1563 1563 1563 1563 1563 1563 1563 1562 1562 1562 1563 1563 1563 1563 1563 1564 1564 1564 1565 1565 1566 1567 1568 1568 1569 1569 1570 1571 1572 1573 1575 1576 1578 1580 1581 1582 1583 1584 1585
1535 1537 1538 1539 1541 1542 1544 1545 1547 1548 1549 1550 1551 1552 1553 1554 1555 1556 1557 1557 1558 1559 1560 1561 1562 1563 1564 1564 1565 1565 1565 1565 1564 1564 1564 1563 1562 1562 1561 1562 1562 1562 1562 1562 1562 1563 1562 1562 1562 1562 1562 1561 1561 1561 1561 1561 1561 1561 1562 1562 1562 1563 1563 1563 1564 1564 1565 1566 1567 1568 1568 1568 1569 1570 1571 1572 1573 1575 1576 1578 1579 1580 1581 1583 1584
1533 1535 1536 1538 1540 1541 1543 1545 1546 1547 1548 1549 1550 1551 1552 1553 1554 1555 1556 1557 1558 1559 1560 1561 1563 1563 1564 1565 1565 1565 1565 1565 1564 1564 1563 1562 1562 1561 1561 1561 1561 1561 1561 1561 1561 1561 1561 1561 1561 1560 1560 1560 1559 1559 1560 1560 1560 1560 1560 1561 1561 1561 1562 1562 1563 1563 1564 1564 1566 1567 1567 1568 1568 1569 1570 1571 1572 1573 1575 1576 1578 1579 1580 1581 1582
1533 1534 1536 1537 1539 1541 1542 1544 1545 1546 1547 1548 1549 1551 1552 1553 1554 1555 1556 1557 1558 1558 1560 1561 1561 1562 1563 1564 1564 1564 1564 1564 1564 1564 1563 1562 1561 1560 1560 1560 1560 1559 1559 1560 1559 1559 1559 1559 1559 1559 1558 1558 1557 1557 1557 1558 1558 1558 1559 1559 1560 1560 1560 1561 1562 1562 1562 1563 1564 1565 1566 1567 1567 1568 1569 1570 1571 1572 1573 1574 1575 1577 1578 1579 1580
1533 1534 1535 1536 1537 1540 1541 1543 1544 1545 1546 1547 1549 1550 1551 1553 1553 1554 1555 1556 1557 1557 1559 1560 1559 1560 1562 1562 1562 1562 1562 1562 1563 1563 1563 1563 1561 1560 1559 1558 1558 1558 1558 1558 1557 1558 1558 1558 1557 1557 1556 1556 1556 1555 1555 1556 1556 1556 1557 1557 1558 1558 1559 1559 1560 1561 1561 1561 1562 1564 1565 1566 1566 1567 1568 1568 1569 1570 1571 1572 1574 1575 1576 1577 1579
1532 1533 1534 1535 1536 1539 1541 1543 1545 1545 1546 1547 1548 1550 1550 1551 1552 1553 1554 1554 1556 1556 1558 1558 1557 1558 1559 1558 1560 1561 1561 1561 1562 1562 1562 1562 1560 1559 1558 1557 1557 1557 1557 1556 1556 1556 1557 1556 1555 1555 1554 1554 1554 1554 1553 1554 1554 1554 1555 1556 1556 1557 1557 1558 1558 1559 1559 1560 1561 1562 1563 1564 1565 1566 1567 1567 1568 1569 1570 1571 1572 1573 1574 1575 1577
1531 1532 1533 1534 1535 1539 1542 1544 1545 1545 1545 1546 1547 1548 1549 1550 1550 1551 1552 1553 1554 1555 1556 1555 1555 1556 1556 1556 1558 1559 1559 1559 1560 1560 1560 1560 1559 1558 1557 1556 1556 1556 1556 1555 1554 1554 1554 1554 1554 1554 1553 1553 1552 1552 1552 1552 1552 1552 1553 1554 1555 1555 1556 1556 1557 1557 1558 1559 1560 1561 1562 1563 1564 1564 1565 1566 1566 1567 1568 1569 1570 1571 1572 1573 1574
1530 1530 1531 1532 1533 1537 1541 1541 1542 1543 1543 1544 1544 1545 1546 1547 1549 1549 1550 1551 1552 1553 1553 1552 1554 1555 1553 1554 1557 1557 1557 1557 1557 1557 1557 1558 1557 1556 1556 1555 1554 1554 1554 1554 1553 1552 1552 1552 1553 1554 1553 1552 1551 1550 1550 1550 1550 1551 1551 1552 1553 1554 1554 1555 1555 1556 1557 1558 1558 1559 1560 1561 1562 1563 1564 1565 1565 1566 1566 1567 1568 1569 1570 1571 1572
1528 1528 1528 1531 1531 1534 1537 1538 1538 1540 1541 1543 1543 1543 1544 1545 1547 1548 1548 1549 1550 1551 1551 1550 1552 1553 1552 1553 1555 1554 1554 1555 1554 1554 1555 1556 1555 1554 1554 1553 1553 1553 1553 1553 1552 1551 1551 1551 1552 1553 1552 1551 1549 1549 1549 1549 1549 1550 1550 1550 1551 1552 1553 1554 1554 1555 1555 1556 1557 1558 1558 1559 1560 1561 1562 1563 1564 1564 1565 1565 1566 1567 1568 1569 1570
1524 1526 1527 1529 1530 1530 1534 1536 1537 1539 1541 1542 1542 1542 1543 1545 1547 1547 1547 1548 1548 1549 1549 1548 1550 1552 1553 1553 1553 1552 1553 1552 1551 1552 1553 1553 1552 1551 1551 1551 1552 1552 1552 1551 1551 1550 1550 1550 1550 1551 1551 1549 1549 1548 1548 1549 1549 1549 1549 1550 1550 1551 1552 1553 1553 1554 1554 1555 1555 1556 1557 1557 1558 1559 1560 1561 1562 1563 1563 1564 1564 1565 1566 1566 1568
1522 1524 1525 1527 1528 1528 1531 1534 1535 1537 1539 1540 1541 1541 1542 1546 1548 1547 1546 1547 1548 1549 1549 1548 1549 1551 1552 1553 1553 1553 1552 1551 1550 1550 1550 1549 1550 1550 1550 1551 1551 1551 1551 1551 1550 1550 1550 1549 1549 1549 1548 1548 1548 1548 1548 1548 1548 1548 1549 1549 1550 1550 1551 1552 1552 1553 1553 1553 1554 1554 1555 1556 1557 1558 1558 1559 1559 1560 1561 1562 1563 1563 1564 1564 1565
1521 1523 1523 1524 1526 1527 1529 1531 1533 1535 1537 1538 1540 1541 1541 1545 1547 1546 1545 1546 1548 1548 1548 1548 1549 1550 1551 1551 1552 1552 1551 1550 1549 1548 1548 1548 1550 1550 1551 1551 1550 1550 1551 1551 1550 1550 1548 1548 1548 1548 1547 1547 1547 1547 1547 1547 1547 1548 1548 1549 1549 1550 1550 1551 1551 1551 1551 1552 1552 1553 1553 1554 1555 1556 1556 1557 1557 1558 1559 1560 1560 1561 1562 1562 1563
1520 1521 1521 1523 1525 1527 1529 1532 1534 1535 1537 1538 1540 1540 1540 1543 1545 1545 1545 1545 1546 1546 1547 1548 1548 1549 1550 1550 1550 1550 1549 1548 1547 1547 1547 1548 1549 1549 1550 1550 1550 1550 1551 1551 1550 1549 1548 1548 1548 1547 1547 1547 1547 1547 1547 1547 1547 1547 1548 1548 1549 1549 1550 1550 1550 1550 1550 1551 1551 1552 1552 1552 1553 1553 1554 1554 1555 1556 1557 1557 1558 1559 1559 1560 1561
1518 1519 1520 1523 1524 1526 1528 1531 1533 1535 1536 1538 1539 1540 1540 1542 1544 1543 1543 1543 1543 1544 1545 1546 1547 1547 1548 1548 1548 1548 1548 1547 1546 1546 1546 1547 1548 1549 1549 1550 1550 1550 1550 1550 1550 1549 1549 1548 1548 1548 1548 1547 1547 1547 1547 1547 1547 1547 1547 1548 1548 1549 1549 1549 1549 1549 1549 1550 1550 1551 1551 1551 1551 1551 1552 1552 1553 1554 1554 1555 1555 1556 1557 1557 1558
1517 1517 1519 1522 1524 1525 1527 1530 1532 1534 1536 1537 1538 1539 1540 1542 1543 1541 1540 1540 1541 1542 1543 1544 1544 1545 1546 1546 1546 1546 1546 1546 1545 1545 1545 1546 1547 1548 1549 1549 1549 1550 1550 1550 1550 1549 1549 1549 1549 1548 1548 1547 1547 1547 1547 1547 1547 1547 1547 1547 1547 1548 1549 1549 1549 1548 1548 1548 1549 1549 1550 1550 1550 1550 1550 1551 1551 1552 1552 1552 1553 1553 1554 1555 1555
1516 1517 1518 1521 1523 1525 1527 1528 1530 1533 1535 1536 1537 1538 1539 1541 1542 1540 1539 1539 1540 1541 1541 1542 1543 1543 1544 1544 1545 1545 1545 1546 1546 1545 1546 1546 1547 1548 1548 1548 1549 1549 1549 1550 1550 1550 1550 1549 1549 1548 1548 1548 1547 1547 1547 1546 1546 1546 1546 1547 1547 1547 1548 1548 1548 1548 1548 1547 1546 1547 1548 1549 1549 1549 1549 1549 1550 1550 1550 1550 1550 1551 1551 1552 1552
1516 1517 1518 1520 1522 1524 1526 1527 1529 1531 1534 1535 1536 1538 1539 1539 1539 1538 1538 1538 1539 1539 1540 1541 1541 1542 1542 1543 1544 1545 1546 1546 1546 1546 1546 1547 1548 1548 1548 1548 1549 1549 1549 1549 1550 1550 1550 1549 1549 1548 1548 1548 1548 1547 1547 1546 1546 1546 1546 1546 1546 1547 1547 1547 1547 1547 1547 1546 1545 1546 1546 1547 1547 1547 1547 1548 1548 1548 1548 1548 1548 1548 1548 1549 1549
1515 1516 1518 1519 1522 1523 1525 1527 1528 1530 1533 1535 1536 1537 1537 1537 1537 1537 1537 1537 1538 1539 1539 1540 1540 1540 1541 1543 1544 1545 1546 1546 1546 1546 1547 1547 1548 1548 1548 1549 1549 1549 1549 1549 1549 1549 1549 1549 1548 1548 1548 1548 1547 1547 1546 1546 1546 1546 1546 1546 1546 1546 1546 1545 1545 1546 1546 1546 1545 1545 1545 1545 1545 1545 1546 1546 1546 1546 1546 1546 1546 1546 1546 1546 1547
1515 1516 1517 1519 1521 1523 1525 1526 1528 1530 1532 1534 1535 1536 1536 1536 1537 1537 1536 1537 1537 1538 1539 1539 1539 1540 1541 1543 1544 1545 1546 1546 1547 1547 1547 1547 1548 1549 1549 1549 1549 1549 1549 1549 1549 1549 1548 1548 1548 1548 1547 1547 1547 1546 1546 1546 1545 1546 1546 1545 1545 1545 1545 1545 1544 1545 1545 1545 1545 1544 1544 1544 1544 1544 1544 1544 1544 1544 1544 1544 1544 1544 1544 1544 1544